Weather History for Cancun, Mexico

Change the Weather History Date:

Tuesday, December 11, 2012

  Actual Average Record
Temperature  
Mean Temperature 78 °F -  
Max Temperature 82 °F 82 °F 87 °F (1997)
Min Temperature 73 °F 66 °F 55 °F (2010)
Cooling Degree Days 12    
Growing Degree Days 28 (Base 50)    
Moisture  
Dew Point 75 °F    
Average Humidity 92    
Maximum Humidity 100    
Minimum Humidity 84    
Precipitation  
Precipitation 2.05 in - - ()
Sea Level Pressure  
Sea Level Pressure 29.92 in    
Wind  
Wind Speed 6 mph ()    
Max Wind Speed 16 mph    
Max Gust Speed -    
Visibility 5.9 miles    
Events Rain , Thunderstorm    
Averages and records for this station are not official NWS values.
T = Trace of Precipitation, MM = Missing Value Source: Averaged Metar Reports

Daily Weather History Graph

Daily Weather History Graph

Search for Another Location

Airport:

Trip Planner

Search our weather history database for the weather conditions in past years. The results will help you decide how hot, cold, wet, or windy it might be!

Date:

Astronomy

Dec. 11, 2012 Rise Set
Actual Time 6:14 AM CST 5:07 PM CST
Civil Twilight 5:50 AM CST 5:31 PM CST
Nautical Twilight 5:22 AM CST 5:59 PM CST
Astronomical Twilight 4:55 AM CST 6:26 PM CST
Moon 4:15 AM CST (12/11) 3:41 PM CST (12/11)
Length of Visible Light 11h 40m
Length of Day
10h 52m
Waning Crescent, 4% of the Moon is Illuminated
Dec 11
Waning Crescent
Dec 13
New
Dec 19
First Quarter
Dec 28
Full
Jan 4
Last Quarter

Hourly Weather History & Observations

Time (CST) Temp. Heat Index Dew Point Humidity Pressure Visibility Wind Dir Wind Speed Gust Speed Precip Events Conditions
12:45 AM 75.2 °F - 75.2 °F 100% 29.91 in 7.0 mi SE 5.8 mph - N/A   Clear
1:44 AM 75.2 °F - 73.4 °F 94% 29.89 in 7.0 mi SSE 5.8 mph - N/A   Clear
2:46 AM 75.2 °F - 73.4 °F 94% 29.86 in 7.0 mi SE 5.8 mph - N/A   Clear
3:45 AM 73.4 °F - 73.4 °F 100% 29.89 in 7.0 mi SE 5.8 mph - N/A   Partly Cloudy
4:44 AM 73.4 °F - 73.4 °F 100% 29.90 in 7.0 mi SE 5.8 mph - N/A   Scattered Clouds
5:43 AM 73.4 °F - 73.4 °F 100% 29.88 in 6.0 mi Calm Calm - N/A   Scattered Clouds
6:42 AM 75.2 °F - 75.2 °F 100% 29.93 in 6.0 mi Calm Calm - N/A Rain Light Rain
7:30 AM 78.8 °F - 77.0 °F 94% 29.95 in 1.0 mi SE 13.8 mph - N/A Rain Rain
7:44 AM 78.8 °F - 77.0 °F 94% 29.94 in 5.0 mi SE 16.1 mph - N/A   Mostly Cloudy
8:47 AM 82.4 °F 90.9 °F 77.0 °F 84% 29.97 in 5.0 mi SE 16.1 mph - N/A   Mostly Cloudy
9:43 AM 80.6 °F 87.1 °F 77.0 °F 89% 29.95 in 5.0 mi SE 12.7 mph - N/A   Overcast
10:40 AM 80.6 °F 87.1 °F 77.0 °F 89% 29.96 in 6.0 mi SE 6.9 mph - N/A   Overcast
11:40 AM 80.6 °F 87.1 °F 77.0 °F 89% 29.95 in 6.0 mi SSE 5.8 mph - N/A   Overcast
12:40 PM 80.6 °F 87.1 °F 77.0 °F 89% 29.89 in 6.0 mi SSE 11.5 mph - N/A   Overcast
1:43 PM 80.6 °F 87.1 °F 77.0 °F 89% 29.89 in 6.0 mi SE 8.1 mph - N/A   Overcast
2:44 PM 80.6 °F 86.2 °F 75.2 °F 84% 29.90 in 6.0 mi SE 6.9 mph - N/A Thunderstorm Thunderstorm
3:44 PM 75.2 °F - 71.6 °F 89% 29.89 in 6.0 mi North 9.2 mph - N/A Thunderstorm Thunderstorm
4:16 PM 73.4 °F - 71.6 °F 94% 29.90 in 5.0 mi WSW 5.8 mph - N/A Rain , Thunderstorm Light Thunderstorms and Rain
4:43 PM 75.2 °F - 71.6 °F 89% 29.88 in 5.0 mi South 8.1 mph - N/A Rain , Thunderstorm Light Thunderstorms and Rain
5:44 PM 73.4 °F - 69.8 °F 88% 29.92 in 5.0 mi SSW 5.8 mph - N/A Rain , Thunderstorm Light Thunderstorms and Rain
6:45 PM 75.2 °F - 73.4 °F 94% 29.91 in 6.0 mi Calm Calm - N/A   Overcast
7:50 PM 75.2 °F - 73.4 °F 94% 29.95 in 7.0 mi ESE 4.6 mph - N/A   Mostly Cloudy
8:53 PM 78.8 °F - 75.2 °F 89% 29.96 in 6.0 mi SSE 6.9 mph - N/A Rain , Thunderstorm Light Thunderstorms and Rain
9:43 PM 78.8 °F - 75.2 °F 89% 29.99 in 7.0 mi SSE 5.8 mph - N/A   Mostly Cloudy
10:48 PM 78.8 °F - 75.2 °F 89% 29.98 in 7.0 mi SE 6.9 mph - N/A   Mostly Cloudy
11:46 PM 78.8 °F - 75.2 °F 89% 29.98 in 7.0 mi SSE 5.8 mph - N/A   Mostly Cloudy